Time,TemperatureF,DewpointF,PressureIn,WindDirection,WindDirectionDegrees,WindSpeedMPH,WindSpeedGustMPH,Humidity,HourlyPrecipIn,Conditions,Clouds,dailyrainin,SoftwareType,DateUTC
2013-09-29 00:02:00,58.9,57.8,30.00,South,176,4.0,9.0,96,0.01,,,0.50,WUHU216DAVISVP2,2013-09-29 05:02:00,
2013-09-29 00:07:00,58.8,57.7,30.00,South,183,6.0,9.0,96,0.01,,,0.00,WUHU216DAVISVP2,2013-09-29 05:07:00,
2013-09-29 00:12:00,58.7,57.3,30.00,South,180,3.0,9.0,95,0.00,,,0.00,WUHU216DAVISVP2,2013-09-29 05:12:00,
2013-09-29 00:17:00,58.6,57.5,30.00,South,179,2.0,9.0,96,0.00,,,0.00,WUHU216DAVISVP2,2013-09-29 05:17:00,
2013-09-29 00:22:00,58.5,57.3,30.00,SW,214,5.0,8.0,96,0.00,,,0.00,WUHU216DAVISVP2,2013-09-29 05:22:00,
2013-09-29 00:27:00,58.5,57.3,30.00,South,189,6.0,8.0,96,0.00,,,0.00,WUHU216DAVISVP2,2013-09-29 05:27:00,
2013-09-29 00:32:00,58.4,57.2,30.00,SSW,196,5.0,9.0,96,0.00,,,0.00,WUHU216DAVISVP2,2013-09-29 05:32:00,
2013-09-29 00:37:00,58.4,57.2,30.00,South,191,3.0,9.0,96,0.00,,,0.00,WUHU216DAVISVP2,2013-09-29 05:37:00,
2013-09-29 00:42:00,58.3,57.1,30.00,South,181,3.0,9.0,96,0.00,,,0.00,WUHU216DAVISVP2,2013-09-29 05:42:00,
2013-09-29 00:47:00,58.3,57.1,30.00,South,186,3.0,9.0,96,0.00,,,0.00,WUHU216DAVISVP2,2013-09-29 05:47:00,
2013-09-29 00:52:00,58.2,57.0,30.00,South,179,6.0,11.0,96,0.00,,,0.00,WUHU216DAVISVP2,2013-09-29 05:52:00,
2013-09-29 00:57:00,58.0,56.5,30.00,South,190,5.0,11.0,95,0.00,,,0.00,WUHU216DAVISVP2,2013-09-29 05:57:00,
2013-09-29 01:02:00,57.8,56.3,30.00,South,190,6.0,11.0,95,0.00,,,0.00,WUHU216DAVISVP2,2013-09-29 06:02:00,
2013-09-29 01:07:00,57.7,56.5,30.00,South,187,5.0,11.0,96,0.00,,,0.00,WUHU216DAVISVP2,2013-09-29 06:07:00,
2013-09-29 01:12:00,57.7,56.2,30.00,SSE,164,1.0,11.0,95,0.00,,,0.00,WUHU216DAVISVP2,2013-09-29 06:12:00,
2013-09-29 01:17:00,57.6,56.1,30.00,SSW,208,1.0,11.0,95,0.00,,,0.00,WUHU216DAVISVP2,2013-09-29 06:17:00,
2013-09-29 01:22:00,57.4,55.9,30.00,SSW,198,5.0,10.0,95,0.00,,,0.00,WUHU216DAVISVP2,2013-09-29 06:22:00,
2013-09-29 01:27:00,57.3,55.9,30.01,South,185,1.0,10.0,95,0.00,,,0.00,WUHU216DAVISVP2,2013-09-29 06:27:00,
2013-09-29 01:32:00,57.2,55.8,30.01,South,187,9.0,10.0,95,0.00,,,0.00,WUHU216DAVISVP2,2013-09-29 06:32:00,
2013-09-29 01:37:00,57.1,55.7,30.01,South,187,5.0,10.0,95,0.00,,,0.00,WUHU216DAVISVP2,2013-09-29 06:37:00,
2013-09-29 01:42:00,57.1,55.7,30.01,SSW,196,2.0,10.0,95,0.00,,,0.00,WUHU216DAVISVP2,2013-09-29 06:42:00,
2013-09-29 01:47:00,57.1,55.7,30.01,South,188,6.0,10.0,95,0.00,,,0.00,WUHU216DAVISVP2,2013-09-29 06:47:00,
2013-09-29 01:52:00,57.0,55.6,30.01,South,187,4.0,12.0,95,0.00,,,0.00,WUHU216DAVISVP2,2013-09-29 06:52:00,
2013-09-29 01:57:00,56.8,55.4,30.01,SSW,193,4.0,12.0,95,0.00,,,0.00,WUHU216DAVISVP2,2013-09-29 06:57:00,
2013-09-29 02:02:00,56.7,55.2,30.01,South,175,5.0,12.0,95,0.00,,,0.00,WUHU216DAVISVP2,2013-09-29 07:02:00,
2013-09-29 02:07:00,56.5,55.0,30.01,South,169,4.0,13.0,95,0.00,,,0.00,WUHU216DAVISVP2,2013-09-29 07:07:00,
2013-09-29 02:12:00,56.4,54.9,30.01,South,175,8.0,13.0,95,0.00,,,0.00,WUHU216DAVISVP2,2013-09-29 07:12:00,
2013-09-29 02:17:00,56.3,54.8,30.01,South,186,4.0,13.0,95,0.00,,,0.00,WUHU216DAVISVP2,2013-09-29 07:17:00,
2013-09-29 02:22:00,56.3,54.8,30.01,South,176,4.0,13.0,95,0.00,,,0.00,WUHU216DAVISVP2,2013-09-29 07:22:00,
2013-09-29 02:27:00,56.3,54.9,30.01,South,189,0.0,11.0,95,0.00,,,0.00,WUHU216DAVISVP2,2013-09-29 07:27:00,
2013-09-29 02:32:00,56.3,54.9,30.01,SW,218,7.0,11.0,95,0.00,,,0.00,WUHU216DAVISVP2,2013-09-29 07:32:00,
2013-09-29 02:37:00,56.3,54.9,30.01,SSW,210,3.0,11.0,95,0.00,,,0.00,WUHU216DAVISVP2,2013-09-29 07:37:00,
2013-09-29 02:42:00,56.4,55.0,30.01,SSW,198,3.0,9.0,95,0.00,,,0.00,WUHU216DAVISVP2,2013-09-29 07:42:00,
2013-09-29 02:47:00,56.5,55.0,30.00,SSW,202,1.0,9.0,95,0.00,,,0.00,WUHU216DAVISVP2,2013-09-29 07:47:00,
2013-09-29 02:52:00,56.5,55.0,30.00,SSW,202,0.0,9.0,95,0.00,,,0.00,WUHU216DAVISVP2,2013-09-29 07:52:00,
2013-09-29 02:57:00,56.4,54.9,30.00,SSW,202,3.0,9.0,95,0.00,,,0.00,WUHU216DAVISVP2,2013-09-29 07:57:00,
2013-09-29 03:02:00,56.4,55.0,30.00,SSW,202,4.0,9.0,95,0.00,,,0.00,WUHU216DAVISVP2,2013-09-29 08:02:00,
2013-09-29 03:07:00,56.3,54.9,30.00,SSW,196,4.0,6.0,95,0.00,,,0.00,WUHU216DAVISVP2,2013-09-29 08:07:00,
2013-09-29 03:12:00,56.3,54.9,30.00,SW,217,2.0,7.0,95,0.00,,,0.00,WUHU216DAVISVP2,2013-09-29 08:12:00,
2013-09-29 03:17:00,56.3,54.8,30.00,SW,218,3.0,7.0,95,0.00,,,0.00,WUHU216DAVISVP2,2013-09-29 08:17:00,
2013-09-29 03:22:00,56.3,54.8,30.00,SW,218,3.0,7.0,95,0.00,,,0.00,WUHU216DAVISVP2,2013-09-29 08:22:00,
2013-09-29 03:27:00,56.2,54.7,30.00,SW,218,0.0,7.0,95,0.00,,,0.00,WUHU216DAVISVP2,2013-09-29 08:27:00,
2013-09-29 03:32:00,56.1,54.7,30.00,SW,218,0.0,6.0,95,0.00,,,0.00,WUHU216DAVISVP2,2013-09-29 08:32:00,
2013-09-29 03:37:00,56.1,54.7,30.00,SW,218,0.0,5.0,95,0.00,,,0.00,WUHU216DAVISVP2,2013-09-29 08:37:00,
2013-09-29 03:42:00,56.1,54.6,30.00,SW,218,0.0,5.0,95,0.00,,,0.00,WUHU216DAVISVP2,2013-09-29 08:42:00,
2013-09-29 03:47:00,56.1,54.6,30.00,SW,218,0.0,4.0,95,0.00,,,0.00,WUHU216DAVISVP2,2013-09-29 08:47:00,
2013-09-29 03:52:00,56.0,54.6,30.00,SW,218,0.0,4.0,95,0.00,,,0.00,WUHU216DAVISVP2,2013-09-29 08:52:00,
2013-09-29 03:57:00,55.9,54.5,30.00,South,189,0.0,5.0,95,0.00,,,0.00,WUHU216DAVISVP2,2013-09-29 08:57:00,
2013-09-29 04:02:00,55.9,54.5,30.00,South,189,2.0,5.0,95,0.00,,,0.00,WUHU216DAVISVP2,2013-09-29 09:02:00,
2013-09-29 04:07:00,56.0,54.5,30.00,SSW,192,3.0,7.0,95,0.00,,,0.00,WUHU216DAVISVP2,2013-09-29 09:07:00,
2013-09-29 04:12:00,55.9,54.4,30.00,South,187,3.0,7.0,95,0.00,,,0.00,WUHU216DAVISVP2,2013-09-29 09:12:00,
2013-09-29 04:17:00,55.9,54.5,30.00,South,185,4.0,7.0,95,0.00,,,0.00,WUHU216DAVISVP2,2013-09-29 09:17:00,
2013-09-29 04:22:00,56.0,54.6,30.00,SSW,207,4.0,9.0,95,0.00,,,0.00,WUHU216DAVISVP2,2013-09-29 09:22:00,
2013-09-29 04:27:00,56.0,54.5,29.99,SSW,206,9.0,11.0,95,0.00,,,0.00,WUHU216DAVISVP2,2013-09-29 09:27:00,
2013-09-29 04:32:00,55.9,54.4,29.99,SW,216,7.0,11.0,95,0.00,,,0.00,WUHU216DAVISVP2,2013-09-29 09:32:00,
2013-09-29 04:37:00,55.8,54.4,29.99,SW,216,3.0,11.0,95,0.00,,,0.00,WUHU216DAVISVP2,2013-09-29 09:37:00,
2013-09-29 04:42:00,55.8,54.3,29.99,SSW,205,0.0,10.0,95,0.00,,,0.00,WUHU216DAVISVP2,2013-09-29 09:42:00,
2013-09-29 04:47:00,55.7,54.2,30.00,SSW,198,0.0,10.0,95,0.00,,,0.00,WUHU216DAVISVP2,2013-09-29 09:47:00,
2013-09-29 04:52:00,55.7,54.3,30.00,SSW,198,0.0,10.0,95,0.00,,,0.00,WUHU216DAVISVP2,2013-09-29 09:52:00,
2013-09-29 04:57:00,55.6,54.2,30.00,SSW,200,0.0,6.0,95,0.00,,,0.00,WUHU216DAVISVP2,2013-09-29 09:57:00,
2013-09-29 05:02:00,55.7,54.2,30.00,SSW,200,0.0,6.0,95,0.00,,,0.00,WUHU216DAVISVP2,2013-09-29 10:02:00,
2013-09-29 05:07:00,55.7,54.2,30.00,SSW,200,0.0,6.0,95,0.00,,,0.00,WUHU216DAVISVP2,2013-09-29 10:07:00,
2013-09-29 05:12:00,55.7,54.3,30.00,SSW,200,3.0,6.0,95,0.00,,,0.00,WUHU216DAVISVP2,2013-09-29 10:12:00,
2013-09-29 05:17:00,55.8,54.3,30.00,SSW,200,2.0,6.0,95,0.00,,,0.00,WUHU216DAVISVP2,2013-09-29 10:17:00,
2013-09-29 05:22:00,55.8,54.3,30.00,SSW,200,2.0,6.0,95,0.00,,,0.00,WUHU216DAVISVP2,2013-09-29 10:22:00,
2013-09-29 05:27:00,55.8,54.4,30.00,SSW,200,1.0,6.0,95,0.00,,,0.00,WUHU216DAVISVP2,2013-09-29 10:27:00,
2013-09-29 05:32:00,55.9,54.4,30.00,SSW,200,0.0,6.0,95,0.00,,,0.00,WUHU216DAVISVP2,2013-09-29 10:32:00,
2013-09-29 05:37:00,55.8,54.3,30.01,SSW,200,0.0,6.0,95,0.00,,,0.00,WUHU216DAVISVP2,2013-09-29 10:37:00,
2013-09-29 05:42:00,55.7,54.3,30.01,SSW,200,0.0,6.0,95,0.00,,,0.00,WUHU216DAVISVP2,2013-09-29 10:42:00,
2013-09-29 05:47:00,55.6,54.2,30.01,SSW,200,1.0,6.0,95,0.00,,,0.00,WUHU216DAVISVP2,2013-09-29 10:47:00,
2013-09-29 05:52:00,55.6,54.1,30.01,SSW,200,4.0,5.0,95,0.00,,,0.00,WUHU216DAVISVP2,2013-09-29 10:52:00,
2013-09-29 05:57:00,55.6,54.2,30.02,SSW,200,4.0,5.0,95,0.00,,,0.00,WUHU216DAVISVP2,2013-09-29 10:57:00,
2013-09-29 06:02:00,55.5,54.1,30.02,SSW,200,0.0,4.0,95,0.00,,,0.00,WUHU216DAVISVP2,2013-09-29 11:02:00,
2013-09-29 06:07:00,55.5,54.0,30.02,SSW,200,4.0,7.0,95,0.00,,,0.00,WUHU216DAVISVP2,2013-09-29 11:07:00,
2013-09-29 06:12:00,55.5,54.1,30.02,SSW,200,3.0,7.0,95,0.00,,,0.00,WUHU216DAVISVP2,2013-09-29 11:12:00,
2013-09-29 06:17:00,55.5,54.0,30.02,SSW,200,2.0,7.0,95,0.00,,,0.00,WUHU216DAVISVP2,2013-09-29 11:17:00,
2013-09-29 06:22:00,55.4,53.9,30.02,SSW,198,2.0,7.0,95,0.00,,,0.00,WUHU216DAVISVP2,2013-09-29 11:22:00,
2013-09-29 06:27:00,55.3,53.9,30.02,SSW,198,4.0,7.0,95,0.00,,,0.00,WUHU216DAVISVP2,2013-09-29 11:27:00,
2013-09-29 06:32:00,55.3,53.8,30.02,SSW,196,1.0,6.0,95,0.00,,,0.00,WUHU216DAVISVP2,2013-09-29 11:32:00,
2013-09-29 06:37:00,55.3,53.8,30.02,SSW,201,3.0,6.0,95,0.00,,,0.00,WUHU216DAVISVP2,2013-09-29 11:37:00,
2013-09-29 06:42:00,55.2,53.8,30.02,SSW,201,3.0,6.0,95,0.00,,,0.00,WUHU216DAVISVP2,2013-09-29 11:42:00,
2013-09-29 06:47:00,55.2,53.7,30.03,SSW,201,3.0,6.0,95,0.00,,,0.00,WUHU216DAVISVP2,2013-09-29 11:47:00,
2013-09-29 06:52:00,55.1,53.7,30.03,SSW,201,0.0,6.0,95,0.00,,,0.00,WUHU216DAVISVP2,2013-09-29 11:52:00,
2013-09-29 06:57:00,55.0,53.6,30.03,SSW,201,0.0,6.0,95,0.00,,,0.00,WUHU216DAVISVP2,2013-09-29 11:57:00,
2013-09-29 07:02:00,55.1,53.6,30.03,SSW,201,4.0,6.0,95,0.00,,,0.00,WUHU216DAVISVP2,2013-09-29 12:02:00,
2013-09-29 07:07:00,55.0,53.6,30.03,SSW,201,3.0,6.0,95,0.00,,,0.00,WUHU216DAVISVP2,2013-09-29 12:07:00,
2013-09-29 07:12:00,55.0,53.6,30.03,SSW,201,0.0,6.0,95,0.00,,,0.00,WUHU216DAVISVP2,2013-09-29 12:12:00,
2013-09-29 07:17:00,55.0,53.5,30.03,SSW,201,2.0,6.0,95,0.00,,,0.00,WUHU216DAVISVP2,2013-09-29 12:17:00,
2013-09-29 07:22:00,54.9,53.5,30.03,SSW,201,0.0,5.0,95,0.00,,,0.00,WUHU216DAVISVP2,2013-09-29 12:22:00,
2013-09-29 07:27:00,55.0,53.5,30.03,SSW,201,1.0,5.0,95,0.00,,,0.00,WUHU216DAVISVP2,2013-09-29 12:27:00,
2013-09-29 07:32:00,55.0,53.5,30.03,SSW,201,1.0,5.0,95,0.00,,,0.00,WUHU216DAVISVP2,2013-09-29 12:32:00,
2013-09-29 07:37:00,55.0,53.6,30.03,SSW,201,1.0,5.0,95,0.00,,,0.00,WUHU216DAVISVP2,2013-09-29 12:37:00,
2013-09-29 07:42:00,55.1,53.6,30.03,SSW,201,2.0,5.0,95,0.00,,,0.00,WUHU216DAVISVP2,2013-09-29 12:42:00,
2013-09-29 07:47:00,55.2,53.8,30.03,SSW,201,0.0,4.0,95,0.00,,,0.00,WUHU216DAVISVP2,2013-09-29 12:47:00,
2013-09-29 07:52:00,55.2,54.1,30.03,SSW,201,1.0,4.0,96,0.00,,,0.00,WUHU216DAVISVP2,2013-09-29 12:52:00,
2013-09-29 07:57:00,55.4,53.9,30.03,SSW,201,2.0,4.0,95,0.00,,,0.00,WUHU216DAVISVP2,2013-09-29 12:57:00,
2013-09-29 08:02:00,55.4,54.0,30.03,SSW,201,0.0,3.0,95,0.00,,,0.00,WUHU216DAVISVP2,2013-09-29 13:02:00,
2013-09-29 08:07:00,55.5,54.0,30.03,SSW,201,3.0,5.0,95,0.00,,,0.00,WUHU216DAVISVP2,2013-09-29 13:07:00,
2013-09-29 08:12:00,55.5,54.3,30.03,SSW,201,3.0,5.0,96,0.00,,,0.00,WUHU216DAVISVP2,2013-09-29 13:12:00,
2013-09-29 08:17:00,55.6,54.2,30.03,SSW,201,1.0,5.0,95,0.00,,,0.00,WUHU216DAVISVP2,2013-09-29 13:17:00,
2013-09-29 08:22:00,55.9,54.4,30.03,SSW,201,0.0,5.0,95,0.00,,,0.00,WUHU216DAVISVP2,2013-09-29 13:22:00,
2013-09-29 08:27:00,55.9,54.2,30.03,SSW,201,1.0,5.0,94,0.00,,,0.00,WUHU216DAVISVP2,2013-09-29 13:27:00,
2013-09-29 08:32:00,56.1,54.3,30.03,SSW,201,0.0,4.0,94,0.00,,,0.00,WUHU216DAVISVP2,2013-09-29 13:32:00,
2013-09-29 08:37:00,56.1,54.4,30.03,SSW,201,0.0,5.0,94,0.00,,,0.00,WUHU216DAVISVP2,2013-09-29 13:37:00,
2013-09-29 08:42:00,56.3,54.2,30.03,SSW,201,1.0,5.0,93,0.00,,,0.00,WUHU216DAVISVP2,2013-09-29 13:42:00,
2013-09-29 08:47:00,56.4,54.1,30.03,SSW,203,4.0,6.0,92,0.00,,,0.00,WUHU216DAVISVP2,2013-09-29 13:47:00,
2013-09-29 08:52:00,56.6,53.9,30.03,SW,220,5.0,7.0,91,0.00,,,0.00,WUHU216DAVISVP2,2013-09-29 13:52:00,
2013-09-29 08:57:00,56.7,53.8,30.03,SW,228,8.0,9.0,90,0.00,,,0.00,WUHU216DAVISVP2,2013-09-29 13:57:00,
2013-09-29 09:02:00,56.7,53.1,30.03,SW,227,7.0,9.0,88,0.00,,,0.00,WUHU216DAVISVP2,2013-09-29 14:02:00,
2013-09-29 09:07:00,56.6,52.8,30.03,SW,229,7.0,10.0,87,0.00,,,0.00,WUHU216DAVISVP2,2013-09-29 14:07:00,
2013-09-29 09:12:00,56.9,53.0,30.03,WSW,245,2.0,10.0,87,0.00,,,0.00,WUHU216DAVISVP2,2013-09-29 14:12:00,
2013-09-29 09:17:00,57.0,52.9,30.03,WSW,240,7.0,10.0,86,0.00,,,0.00,WUHU216DAVISVP2,2013-09-29 14:17:00,
2013-09-29 09:22:00,57.2,52.7,30.03,SSW,202,2.0,10.0,85,0.00,,,0.00,WUHU216DAVISVP2,2013-09-29 14:22:00,
2013-09-29 09:27:00,57.3,52.6,30.03,WSW,248,5.0,9.0,84,0.00,,,0.00,WUHU216DAVISVP2,2013-09-29 14:27:00,
2013-09-29 09:32:00,57.7,52.9,30.03,WSW,252,4.0,10.0,84,0.00,,,0.00,WUHU216DAVISVP2,2013-09-29 14:32:00,
2013-09-29 09:37:00,57.8,52.0,30.04,WSW,254,6.0,10.0,81,0.00,,,0.00,WUHU216DAVISVP2,2013-09-29 14:37:00,
2013-09-29 09:42:00,58.0,52.6,30.04,SW,220,5.0,10.0,82,0.00,,,0.00,WUHU216DAVISVP2,2013-09-29 14:42:00,
2013-09-29 09:47:00,58.2,51.8,30.04,SW,233,2.0,10.0,79,0.00,,,0.00,WUHU216DAVISVP2,2013-09-29 14:47:00,
2013-09-29 09:52:00,58.1,52.0,30.03,WSW,247,7.0,10.0,80,0.00,,,0.00,WUHU216DAVISVP2,2013-09-29 14:52:00,
2013-09-29 09:57:00,58.2,52.1,30.04,West,268,4.0,10.0,80,0.00,,,0.00,WUHU216DAVISVP2,2013-09-29 14:57:00,
2013-09-29 10:02:00,58.6,51.5,30.03,West,278,5.0,11.0,77,0.00,,,0.00,WUHU216DAVISVP2,2013-09-29 15:02:00,
2013-09-29 10:07:00,58.9,51.4,30.04,WSW,258,0.0,12.0,76,0.00,,,0.00,WUHU216DAVISVP2,2013-09-29 15:07:00,
2013-09-29 10:12:00,59.3,51.8,30.04,WSW,253,7.0,12.0,76,0.00,,,0.00,WUHU216DAVISVP2,2013-09-29 15:12:00,
2013-09-29 10:17:00,59.3,51.2,30.04,WSW,247,7.0,12.0,74,0.00,,,0.00,WUHU216DAVISVP2,2013-09-29 15:17:00,
2013-09-29 10:22:00,59.1,51.3,30.04,WSW,245,2.0,12.0,75,0.00,,,0.00,WUHU216DAVISVP2,2013-09-29 15:22:00,
2013-09-29 10:27:00,59.4,51.2,30.04,West,260,8.0,11.0,74,0.00,,,0.00,WUHU216DAVISVP2,2013-09-29 15:27:00,
2013-09-29 10:32:00,59.3,50.4,30.04,WSW,237,6.0,11.0,72,0.00,,,0.00,WUHU216DAVISVP2,2013-09-29 15:32:00,
2013-09-29 10:37:00,59.1,50.9,30.04,West,268,6.0,11.0,74,0.00,,,0.00,WUHU216DAVISVP2,2013-09-29 15:37:00,
2013-09-29 10:42:00,59.2,50.3,30.04,WSW,256,8.0,11.0,72,0.00,,,0.00,WUHU216DAVISVP2,2013-09-29 15:42:00,
2013-09-29 10:47:00,59.4,50.8,30.03,West,270,9.0,11.0,73,0.00,,,0.00,WUHU216DAVISVP2,2013-09-29 15:47:00,
2013-09-29 10:52:00,59.9,50.6,30.03,West,260,10.0,11.0,71,0.00,,,0.00,WUHU216DAVISVP2,2013-09-29 15:52:00,
2013-09-29 10:57:00,60.1,51.2,30.04,West,271,5.0,11.0,72,0.00,,,0.00,WUHU216DAVISVP2,2013-09-29 15:57:00,
2013-09-29 11:02:00,60.2,50.9,30.03,WSW,250,1.0,11.0,71,0.00,,,0.00,WUHU216DAVISVP2,2013-09-29 16:02:00,
2013-09-29 11:08:00,60.2,50.5,30.03,SW,220,0.0,11.0,70,0.00,,,0.00,WUHU216DAVISVP2,2013-09-29 16:08:00,
2013-09-29 11:13:00,60.0,50.3,30.03,SW,224,7.0,11.0,70,0.00,,,0.00,WUHU216DAVISVP2,2013-09-29 16:13:00,
2013-09-29 11:18:00,60.0,51.5,30.03,West,266,4.0,11.0,73,0.00,,,0.00,WUHU216DAVISVP2,2013-09-29 16:18:00,
2013-09-29 11:23:00,60.3,50.6,30.03,SW,233,4.0,11.0,70,0.00,,,0.00,WUHU216DAVISVP2,2013-09-29 16:23:00,
2013-09-29 11:28:00,60.3,51.3,30.03,SSW,200,9.0,11.0,72,0.00,,,0.00,WUHU216DAVISVP2,2013-09-29 16:28:00,
2013-09-29 11:33:00,60.3,51.0,30.03,WSW,241,6.0,10.0,71,0.00,,,0.00,WUHU216DAVISVP2,2013-09-29 16:33:00,
2013-09-29 11:38:00,60.2,50.6,30.03,SSW,202,5.0,10.0,70,0.00,,,0.00,WUHU216DAVISVP2,2013-09-29 16:38:00,
2013-09-29 11:43:00,60.6,50.9,30.03,West,260,4.0,10.0,70,0.00,,,0.00,WUHU216DAVISVP2,2013-09-29 16:43:00,
2013-09-29 11:48:00,60.8,50.3,30.02,SW,214,8.0,10.0,68,0.00,,,0.00,WUHU216DAVISVP2,2013-09-29 16:48:00,
2013-09-29 11:53:00,61.1,51.0,30.02,SW,214,3.0,10.0,69,0.00,,,0.00,WUHU216DAVISVP2,2013-09-29 16:53:00,
2013-09-29 11:58:00,61.0,50.5,30.02,West,267,4.0,10.0,68,0.00,,,0.00,WUHU216DAVISVP2,2013-09-29 16:58:00,
2013-09-29 12:03:00,61.0,50.5,30.02,WSW,241,3.0,10.0,68,0.00,,,0.00,WUHU216DAVISVP2,2013-09-29 17:03:00,
2013-09-29 12:08:00,61.0,50.5,30.02,SW,214,0.0,10.0,68,0.00,,,0.00,WUHU216DAVISVP2,2013-09-29 17:08:00,
2013-09-29 12:13:00,61.2,50.7,30.02,WSW,243,5.0,10.0,68,0.00,,,0.00,WUHU216DAVISVP2,2013-09-29 17:13:00,
2013-09-29 12:18:00,61.4,50.5,30.01,West,273,4.0,11.0,67,0.00,,,0.00,WUHU216DAVISVP2,2013-09-29 17:18:00,
2013-09-29 12:23:00,61.8,49.7,30.01,SW,218,3.0,11.0,64,0.00,,,0.00,WUHU216DAVISVP2,2013-09-29 17:23:00,
2013-09-29 12:28:00,61.9,49.7,30.01,West,263,3.0,11.0,64,0.00,,,0.00,WUHU216DAVISVP2,2013-09-29 17:28:00,
2013-09-29 12:33:00,62.0,50.6,30.01,West,266,3.0,11.0,66,0.00,,,0.00,WUHU216DAVISVP2,2013-09-29 17:33:00,
2013-09-29 12:38:00,62.4,50.7,30.01,WSW,250,0.0,10.0,65,0.00,,,0.00,WUHU216DAVISVP2,2013-09-29 17:38:00,
2013-09-29 12:43:00,62.5,50.8,30.01,SW,229,1.0,9.0,65,0.00,,,0.00,WUHU216DAVISVP2,2013-09-29 17:43:00,
2013-09-29 12:48:00,62.8,51.0,30.01,SW,215,3.0,9.0,65,0.00,,,0.00,WUHU216DAVISVP2,2013-09-29 17:48:00,
2013-09-29 12:53:00,62.8,50.2,30.00,West,260,3.0,8.0,63,0.00,,,0.00,WUHU216DAVISVP2,2013-09-29 17:53:00,
2013-09-29 12:58:00,62.9,50.7,30.00,WSW,256,3.0,9.0,64,0.00,,,0.00,WUHU216DAVISVP2,2013-09-29 17:58:00,
2013-09-29 13:03:00,63.1,50.5,30.00,West,268,6.0,10.0,63,0.00,,,0.00,WUHU216DAVISVP2,2013-09-29 18:03:00,
2013-09-29 13:08:00,63.3,50.7,30.00,WNW,301,6.0,10.0,63,0.00,,,0.00,WUHU216DAVISVP2,2013-09-29 18:08:00,
2013-09-29 13:13:00,63.6,50.9,30.00,NW,314,0.0,10.0,63,0.00,,,0.00,WUHU216DAVISVP2,2013-09-29 18:13:00,
2013-09-29 13:18:00,64.0,50.0,29.99,SSW,197,2.0,10.0,60,0.00,,,0.00,WUHU216DAVISVP2,2013-09-29 18:18:00,
2013-09-29 13:23:00,64.1,51.0,29.99,West,267,3.0,8.0,62,0.00,,,0.00,WUHU216DAVISVP2,2013-09-29 18:23:00,
2013-09-29 13:28:00,64.4,50.8,29.99,West,270,0.0,8.0,61,0.00,,,0.00,WUHU216DAVISVP2,2013-09-29 18:28:00,
2013-09-29 13:33:00,64.4,50.4,29.99,SW,225,6.0,8.0,60,0.00,,,0.00,WUHU216DAVISVP2,2013-09-29 18:33:00,
2013-09-29 13:38:00,64.4,51.3,29.99,WSW,249,3.0,8.0,62,0.00,,,0.00,WUHU216DAVISVP2,2013-09-29 18:38:00,
2013-09-29 13:43:00,64.5,50.9,29.98,WSW,249,0.0,8.0,61,0.00,,,0.00,WUHU216DAVISVP2,2013-09-29 18:43:00,
2013-09-29 13:48:00,64.7,50.6,29.98,SSW,212,3.0,8.0,60,0.00,,,0.00,WUHU216DAVISVP2,2013-09-29 18:48:00,
2013-09-29 13:53:00,65.0,50.5,29.98,WSW,239,6.0,10.0,59,0.00,,,0.00,WUHU216DAVISVP2,2013-09-29 18:53:00,
2013-09-29 13:58:00,65.0,49.5,29.97,SW,220,4.0,10.0,57,0.00,,,0.00,WUHU216DAVISVP2,2013-09-29 18:58:00,
2013-09-29 14:03:00,65.1,49.2,29.97,WSW,252,0.0,10.0,56,0.00,,,0.00,WUHU216DAVISVP2,2013-09-29 19:03:00,
2013-09-29 14:08:00,65.6,51.0,29.97,SW,230,6.0,10.0,59,0.00,,,0.00,WUHU216DAVISVP2,2013-09-29 19:08:00,
2013-09-29 14:13:00,65.7,50.7,29.97,WSW,243,0.0,9.0,58,0.00,,,0.00,WUHU216DAVISVP2,2013-09-29 19:13:00,
2013-09-29 14:18:00,66.2,49.7,29.96,West,264,1.0,8.0,55,0.00,,,0.00,WUHU216DAVISVP2,2013-09-29 19:18:00,
2013-09-29 14:23:00,66.7,50.6,29.96,SW,236,8.0,8.0,56,0.00,,,0.00,WUHU216DAVISVP2,2013-09-29 19:23:00,
2013-09-29 14:28:00,66.6,50.6,29.96,WSW,237,2.0,8.0,56,0.00,,,0.00,WUHU216DAVISVP2,2013-09-29 19:28:00,
2013-09-29 14:33:00,66.7,50.1,29.96,SW,216,6.0,8.0,55,0.00,,,0.00,WUHU216DAVISVP2,2013-09-29 19:33:00,
2013-09-29 14:38:00,66.9,50.8,29.96,WSW,245,0.0,8.0,56,0.00,,,0.00,WUHU216DAVISVP2,2013-09-29 19:38:00,
2013-09-29 14:43:00,67.3,51.2,29.95,SSW,207,4.0,8.0,56,0.00,,,0.00,WUHU216DAVISVP2,2013-09-29 19:43:00,
2013-09-29 14:48:00,67.4,49.3,29.95,SW,231,1.0,7.0,52,0.00,,,0.00,WUHU216DAVISVP2,2013-09-29 19:48:00,
2013-09-29 14:53:00,67.4,50.3,29.95,SW,227,0.0,7.0,54,0.00,,,0.00,WUHU216DAVISVP2,2013-09-29 19:53:00,
2013-09-29 14:58:00,68.0,51.4,29.95,West,268,6.0,8.0,55,0.00,,,0.00,WUHU216DAVISVP2,2013-09-29 19:58:00,
2013-09-29 15:03:00,68.4,50.2,29.95,SW,235,5.0,8.0,52,0.00,,,0.00,WUHU216DAVISVP2,2013-09-29 20:03:00,
2013-09-29 15:08:00,68.3,49.5,29.94,WSW,248,3.0,9.0,51,0.00,,,0.00,WUHU216DAVISVP2,2013-09-29 20:08:00,
2013-09-29 15:13:00,68.5,52.3,29.94,WNW,283,0.0,9.0,56,0.00,,,0.00,WUHU216DAVISVP2,2013-09-29 20:13:00,
2013-09-29 15:18:00,69.1,51.9,29.94,West,275,2.0,9.0,54,0.00,,,0.00,WUHU216DAVISVP2,2013-09-29 20:18:00,
2013-09-29 15:23:00,69.5,50.1,29.94,West,272,7.0,9.0,50,0.00,,,0.00,WUHU216DAVISVP2,2013-09-29 20:23:00,
2013-09-29 15:28:00,69.5,49.6,29.94,West,281,3.0,9.0,49,0.00,,,0.00,WUHU216DAVISVP2,2013-09-29 20:28:00,
2013-09-29 15:33:00,69.6,49.1,29.94,WNW,284,0.0,9.0,48,0.00,,,0.00,WUHU216DAVISVP2,2013-09-29 20:33:00,
2013-09-29 15:38:00,70.2,51.3,29.94,WNW,284,0.0,9.0,51,0.00,,,0.00,WUHU216DAVISVP2,2013-09-29 20:38:00,
2013-09-29 15:43:00,70.7,51.2,29.94,WNW,301,0.0,7.0,50,0.00,,,0.00,WUHU216DAVISVP2,2013-09-29 20:43:00,
2013-09-29 15:48:00,71.1,51.6,29.94,SSW,211,2.0,6.0,50,0.00,,,0.00,WUHU216DAVISVP2,2013-09-29 20:48:00,
2013-09-29 15:53:00,70.9,50.3,29.93,West,266,6.0,6.0,48,0.00,,,0.00,WUHU216DAVISVP2,2013-09-29 20:53:00,
2013-09-29 15:58:00,70.7,50.7,29.93,WSW,252,7.0,8.0,49,0.00,,,0.00,WUHU216DAVISVP2,2013-09-29 20:58:00,
2013-09-29 16:03:00,70.6,50.5,29.93,WSW,237,2.0,8.0,49,0.00,,,0.00,WUHU216DAVISVP2,2013-09-29 21:03:00,
2013-09-29 16:08:00,70.8,50.7,29.93,West,260,4.0,9.0,49,0.00,,,0.00,WUHU216DAVISVP2,2013-09-29 21:08:00,
2013-09-29 16:13:00,70.8,50.2,29.93,SW,215,4.0,9.0,48,0.00,,,0.00,WUHU216DAVISVP2,2013-09-29 21:13:00,
2013-09-29 16:18:00,70.9,51.4,29.93,West,268,6.0,9.0,50,0.00,,,0.00,WUHU216DAVISVP2,2013-09-29 21:18:00,
2013-09-29 16:23:00,71.2,50.0,29.93,West,266,5.0,9.0,47,0.00,,,0.00,WUHU216DAVISVP2,2013-09-29 21:23:00,
2013-09-29 16:28:00,71.5,52.0,29.93,West,266,0.0,9.0,50,0.00,,,0.00,WUHU216DAVISVP2,2013-09-29 21:28:00,
2013-09-29 16:33:00,71.9,52.3,29.93,West,269,3.0,9.0,50,0.00,,,0.00,WUHU216DAVISVP2,2013-09-29 21:33:00,
2013-09-29 16:38:00,71.9,52.3,29.93,West,269,1.0,8.0,50,0.00,,,0.00,WUHU216DAVISVP2,2013-09-29 21:38:00,
2013-09-29 16:43:00,72.2,52.6,29.93,West,269,4.0,7.0,50,0.00,,,0.00,WUHU216DAVISVP2,2013-09-29 21:43:00,
2013-09-29 16:48:00,72.2,52.6,29.92,SW,232,1.0,6.0,50,0.00,,,0.00,WUHU216DAVISVP2,2013-09-29 21:48:00,
2013-09-29 16:53:00,72.2,53.1,29.92,NW,325,0.0,7.0,51,0.00,,,0.00,WUHU216DAVISVP2,2013-09-29 21:53:00,
2013-09-29 16:58:00,72.3,52.7,29.93,NW,306,3.0,9.0,50,0.00,,,0.00,WUHU216DAVISVP2,2013-09-29 21:58:00,
2013-09-29 17:03:00,72.2,53.1,29.93,West,274,0.0,9.0,51,0.00,,,0.00,WUHU216DAVISVP2,2013-09-29 22:03:00,
2013-09-29 17:08:00,72.3,52.7,29.92,West,274,3.0,9.0,50,0.00,,,0.00,WUHU216DAVISVP2,2013-09-29 22:08:00,
2013-09-29 17:13:00,72.5,53.4,29.92,West,281,1.0,9.0,51,0.00,,,0.00,WUHU216DAVISVP2,2013-09-29 22:13:00,
2013-09-29 17:18:00,72.8,53.7,29.92,West,281,2.0,7.0,51,0.00,,,0.00,WUHU216DAVISVP2,2013-09-29 22:18:00,
2013-09-29 17:23:00,73.0,53.3,29.92,WNW,287,2.0,7.0,50,0.00,,,0.00,WUHU216DAVISVP2,2013-09-29 22:23:00,
2013-09-29 17:28:00,73.0,53.4,29.92,NNW,328,6.0,7.0,50,0.00,,,0.00,WUHU216DAVISVP2,2013-09-29 22:28:00,
2013-09-29 17:33:00,72.9,52.7,29.92,NNW,328,2.0,7.0,49,0.00,,,0.00,WUHU216DAVISVP2,2013-09-29 22:33:00,
2013-09-29 17:38:00,72.9,53.3,29.92,NNW,328,0.0,7.0,50,0.00,,,0.00,WUHU216DAVISVP2,2013-09-29 22:38:00,
2013-09-29 17:43:00,73.2,54.1,29.92,NW,323,5.0,6.0,51,0.00,,,0.00,WUHU216DAVISVP2,2013-09-29 22:43:00,
2013-09-29 17:48:00,73.1,53.5,29.92,WNW,301,5.0,6.0,50,0.00,,,0.00,WUHU216DAVISVP2,2013-09-29 22:48:00,
2013-09-29 17:53:00,73.3,54.2,29.92,WNW,301,0.0,6.0,51,0.00,,,0.00,WUHU216DAVISVP2,2013-09-29 22:53:00,
2013-09-29 17:58:00,73.4,54.8,29.92,WNW,301,0.0,6.0,52,0.00,,,0.00,WUHU216DAVISVP2,2013-09-29 22:58:00,
2013-09-29 18:03:00,73.4,55.3,29.92,WNW,301,2.0,6.0,53,0.00,,,0.00,WUHU216DAVISVP2,2013-09-29 23:03:00,
2013-09-29 18:08:00,73.1,55.6,29.92,WNW,283,0.0,5.0,54,0.00,,,0.00,WUHU216DAVISVP2,2013-09-29 23:08:00,
2013-09-29 18:13:00,72.9,54.9,29.92,WNW,283,0.0,5.0,53,0.00,,,0.00,WUHU216DAVISVP2,2013-09-29 23:13:00,
2013-09-29 18:18:00,72.8,55.8,29.92,WNW,283,2.0,5.0,55,0.00,,,0.00,WUHU216DAVISVP2,2013-09-29 23:18:00,
2013-09-29 18:23:00,72.5,55.6,29.92,WNW,283,3.0,5.0,55,0.00,,,0.00,WUHU216DAVISVP2,2013-09-29 23:23:00,
2013-09-29 18:28:00,72.2,55.3,29.92,WNW,283,0.0,5.0,55,0.00,,,0.00,WUHU216DAVISVP2,2013-09-29 23:28:00,
2013-09-29 18:34:00,71.9,55.0,29.92,WNW,283,0.0,5.0,55,0.00,,,0.00,WUHU216DAVISVP2,2013-09-29 23:34:00,
2013-09-29 18:39:00,71.6,55.2,29.92,WNW,283,0.0,5.0,56,0.00,,,0.00,WUHU216DAVISVP2,2013-09-29 23:39:00,
2013-09-29 18:44:00,71.1,55.2,29.92,WNW,283,0.0,3.0,57,0.00,,,0.00,WUHU216DAVISVP2,2013-09-29 23:44:00,
2013-09-29 18:49:00,70.7,55.9,29.92,WNW,283,0.0,3.0,59,0.00,,,0.00,WUHU216DAVISVP2,2013-09-29 23:49:00,
2013-09-29 18:54:00,70.2,55.8,29.92,WNW,283,0.0,2.0,60,0.00,,,0.00,WUHU216DAVISVP2,2013-09-29 23:54:00,
2013-09-29 18:59:00,69.7,55.8,29.92,WNW,283,0.0,2.0,61,0.00,,,0.00,WUHU216DAVISVP2,2013-09-29 23:59:00,
2013-09-29 19:04:00,69.1,56.2,29.92,WNW,283,0.0,2.0,63,0.00,,,0.00,WUHU216DAVISVP2,2013-09-30 00:04:00,
2013-09-29 19:09:00,68.6,56.1,29.92,WNW,283,0.0,1.0,64,0.00,,,0.00,WUHU216DAVISVP2,2013-09-30 00:09:00,
2013-09-29 19:14:00,68.1,56.0,29.92,WNW,283,0.0,0.0,65,0.00,,,0.00,WUHU216DAVISVP2,2013-09-30 00:14:00,
2013-09-29 19:19:00,67.6,55.6,29.92,WNW,283,0.0,0.0,65,0.00,,,0.00,WUHU216DAVISVP2,2013-09-30 00:19:00,
2013-09-29 19:24:00,67.2,55.6,29.92,WNW,283,0.0,0.0,66,0.00,,,0.00,WUHU216DAVISVP2,2013-09-30 00:24:00,
2013-09-29 19:29:00,66.7,55.2,29.92,WNW,283,0.0,0.0,66,0.00,,,0.00,WUHU216DAVISVP2,2013-09-30 00:29:00,
2013-09-29 19:34:00,66.4,55.3,29.92,WNW,283,0.0,0.0,67,0.00,,,0.00,WUHU216DAVISVP2,2013-09-30 00:34:00,
2013-09-29 19:39:00,66.0,55.3,29.92,WNW,283,0.0,0.0,68,0.00,,,0.00,WUHU216DAVISVP2,2013-09-30 00:39:00,
2013-09-29 19:44:00,65.6,55.4,29.92,WNW,283,0.0,0.0,69,0.00,,,0.00,WUHU216DAVISVP2,2013-09-30 00:44:00,
2013-09-29 19:49:00,65.2,54.9,29.92,WNW,283,0.0,0.0,69,0.00,,,0.00,WUHU216DAVISVP2,2013-09-30 00:49:00,
2013-09-29 19:54:00,64.9,55.4,29.92,WNW,283,0.0,0.0,71,0.00,,,0.00,WUHU216DAVISVP2,2013-09-30 00:54:00,
2013-09-29 19:59:00,64.4,55.0,29.92,WNW,283,0.0,0.0,71,0.00,,,0.00,WUHU216DAVISVP2,2013-09-30 00:59:00,
2013-09-29 20:04:00,64.1,54.7,29.92,WNW,283,0.0,0.0,71,0.00,,,0.00,WUHU216DAVISVP2,2013-09-30 01:04:00,
2013-09-29 20:09:00,63.8,54.7,29.92,WNW,283,0.0,0.0,72,0.00,,,0.00,WUHU216DAVISVP2,2013-09-30 01:09:00,
2013-09-29 20:14:00,63.5,54.9,29.93,WNW,283,0.0,0.0,73,0.00,,,0.00,WUHU216DAVISVP2,2013-09-30 01:14:00,
2013-09-29 20:19:00,63.2,54.9,29.93,WNW,283,0.0,0.0,74,0.00,,,0.00,WUHU216DAVISVP2,2013-09-30 01:19:00,
2013-09-29 20:24:00,62.9,54.6,29.92,WNW,283,0.0,0.0,74,0.00,,,0.00,WUHU216DAVISVP2,2013-09-30 01:24:00,
2013-09-29 20:29:00,62.5,54.6,29.93,WNW,283,0.0,0.0,75,0.00,,,0.00,WUHU216DAVISVP2,2013-09-30 01:29:00,
2013-09-29 20:34:00,62.4,54.5,29.93,WNW,283,0.0,0.0,75,0.00,,,0.00,WUHU216DAVISVP2,2013-09-30 01:34:00,
2013-09-29 20:39:00,62.3,54.4,29.92,WNW,283,0.0,0.0,75,0.00,,,0.00,WUHU216DAVISVP2,2013-09-30 01:39:00,
2013-09-29 20:44:00,62.1,54.2,29.93,WNW,283,0.0,0.0,75,0.00,,,0.00,WUHU216DAVISVP2,2013-09-30 01:44:00,
2013-09-29 20:49:00,61.9,54.4,29.93,WNW,283,0.0,0.0,76,0.00,,,0.00,WUHU216DAVISVP2,2013-09-30 01:49:00,
2013-09-29 20:54:00,61.7,54.1,29.93,WNW,283,0.0,0.0,76,0.00,,,0.00,WUHU216DAVISVP2,2013-09-30 01:54:00,
2013-09-29 20:59:00,61.5,53.9,29.93,WNW,283,0.0,0.0,76,0.00,,,0.00,WUHU216DAVISVP2,2013-09-30 01:59:00,
2013-09-29 21:04:00,61.2,53.7,29.93,WNW,283,0.0,0.0,76,0.00,,,0.00,WUHU216DAVISVP2,2013-09-30 02:04:00,
2013-09-29 21:09:00,61.1,53.9,29.93,WNW,283,0.0,0.0,77,0.00,,,0.00,WUHU216DAVISVP2,2013-09-30 02:09:00,
2013-09-29 21:14:00,60.9,53.7,29.93,WNW,283,0.0,0.0,77,0.00,,,0.00,WUHU216DAVISVP2,2013-09-30 02:14:00,
2013-09-29 21:19:00,60.7,53.6,29.93,WNW,283,0.0,0.0,77,0.00,,,0.00,WUHU216DAVISVP2,2013-09-30 02:19:00,
2013-09-29 21:24:00,60.6,53.8,29.93,WNW,283,0.0,0.0,78,0.00,,,0.00,WUHU216DAVISVP2,2013-09-30 02:24:00,
2013-09-29 21:29:00,60.5,53.7,29.93,WNW,283,0.0,0.0,78,0.00,,,0.00,WUHU216DAVISVP2,2013-09-30 02:29:00,
2013-09-29 21:34:00,60.4,53.9,29.93,WNW,283,0.0,0.0,79,0.00,,,0.00,WUHU216DAVISVP2,2013-09-30 02:34:00,
2013-09-29 21:39:00,60.1,53.7,29.93,WNW,283,0.0,0.0,79,0.00,,,0.00,WUHU216DAVISVP2,2013-09-30 02:39:00,
2013-09-29 21:44:00,60.0,53.9,29.93,WNW,283,0.0,3.0,80,0.00,,,0.00,WUHU216DAVISVP2,2013-09-30 02:44:00,
2013-09-29 21:49:00,59.9,53.8,29.92,WNW,283,1.0,3.0,80,0.00,,,0.00,WUHU216DAVISVP2,2013-09-30 02:49:00,
2013-09-29 21:54:00,59.7,53.9,29.93,WNW,283,0.0,3.0,81,0.00,,,0.00,WUHU216DAVISVP2,2013-09-30 02:54:00,
2013-09-29 21:59:00,59.5,53.7,29.93,WNW,283,1.0,3.0,81,0.00,,,0.00,WUHU216DAVISVP2,2013-09-30 02:59:00,
2013-09-29 22:04:00,59.4,54.0,29.93,WNW,283,1.0,2.0,82,0.00,,,0.00,WUHU216DAVISVP2,2013-09-30 03:04:00,
2013-09-29 22:09:00,59.3,53.8,29.93,WNW,283,1.0,4.0,82,0.00,,,0.00,WUHU216DAVISVP2,2013-09-30 03:09:00,
2013-09-29 22:14:00,59.0,53.8,29.93,WNW,283,0.0,4.0,83,0.00,,,0.00,WUHU216DAVISVP2,2013-09-30 03:14:00,
2013-09-29 22:19:00,58.7,53.9,29.93,WNW,283,0.0,4.0,84,0.00,,,0.00,WUHU216DAVISVP2,2013-09-30 03:19:00,
2013-09-29 22:24:00,58.4,53.6,29.93,WNW,283,0.0,4.0,84,0.00,,,0.00,WUHU216DAVISVP2,2013-09-30 03:24:00,
2013-09-29 22:29:00,58.1,53.6,29.93,WNW,283,0.0,4.0,85,0.00,,,0.00,WUHU216DAVISVP2,2013-09-30 03:29:00,
2013-09-29 22:34:00,57.8,53.6,29.93,WNW,283,0.0,1.0,86,0.00,,,0.00,WUHU216DAVISVP2,2013-09-30 03:34:00,
2013-09-29 22:40:00,57.6,53.7,29.93,WNW,283,0.0,1.0,87,0.00,,,0.00,WUHU216DAVISVP2,2013-09-30 03:40:00,
2013-09-29 22:45:00,57.3,53.5,29.93,WNW,283,0.0,1.0,87,0.00,,,0.00,WUHU216DAVISVP2,2013-09-30 03:45:00,
2013-09-29 22:50:00,57.3,53.5,29.93,WNW,283,0.0,1.0,87,0.00,,,0.00,WUHU216DAVISVP2,2013-09-30 03:50:00,
2013-09-29 22:55:00,57.2,53.4,29.93,WNW,283,0.0,1.0,87,0.00,,,0.00,WUHU216DAVISVP2,2013-09-30 03:55:00,
2013-09-29 23:00:00,57.2,53.4,29.93,WNW,283,0.0,2.0,87,0.00,,,0.00,WUHU216DAVISVP2,2013-09-30 04:00:00,
2013-09-29 23:01:00,57.1,53.2,29.93,WNW,283,0.0,4.0,87,0.00,,,0.00,WUHU216DAVISVP2,2013-09-30 04:01:00,
2013-09-29 23:06:00,57.1,53.2,29.93,WNW,283,1.0,4.0,87,0.00,,,0.00,WUHU216DAVISVP2,2013-09-30 04:06:00,
2013-09-29 23:11:00,57.1,53.2,29.93,WNW,283,0.0,4.0,87,0.00,,,0.00,WUHU216DAVISVP2,2013-09-30 04:11:00,
2013-09-29 23:17:00,56.9,53.1,29.93,WNW,283,0.0,4.0,87,0.00,,,0.00,WUHU216DAVISVP2,2013-09-30 04:17:00,
2013-09-29 23:22:00,56.8,53.0,29.93,WNW,283,0.0,2.0,87,0.00,,,0.00,WUHU216DAVISVP2,2013-09-30 04:22:00,
2013-09-29 23:27:00,56.7,52.9,29.93,WNW,283,0.0,1.0,87,0.00,,,0.00,WUHU216DAVISVP2,2013-09-30 04:27:00,
2013-09-29 23:32:00,56.6,53.1,29.92,WNW,283,0.0,0.0,88,0.00,,,0.00,WUHU216DAVISVP2,2013-09-30 04:32:00,
2013-09-29 23:37:00,56.5,53.0,29.93,WNW,283,0.0,0.0,88,0.00,,,0.00,WUHU216DAVISVP2,2013-09-30 04:37:00,
2013-09-29 23:42:00,56.3,52.8,29.92,WNW,283,0.0,0.0,88,0.00,,,0.00,WUHU216DAVISVP2,2013-09-30 04:42:00,
2013-09-29 23:47:00,56.2,52.6,29.92,WNW,283,0.0,1.0,88,0.00,,,0.00,WUHU216DAVISVP2,2013-09-30 04:47:00,
2013-09-29 23:52:00,56.2,52.9,29.92,WNW,283,0.0,1.0,89,0.00,,,0.00,WUHU216DAVISVP2,2013-09-30 04:52:00,
2013-09-29 23:57:00,56.1,52.5,29.92,WNW,283,0.0,1.0,88,0.00,,,0.00,WUHU216DAVISVP2,2013-09-30 04:57:00,